Find Starlink 32462

NORAD ID: 62129 Int'l Des: 2024-222 Owner: SPXS Country: US Constellation: starlink operational
LEOCIRCULAR

当前视图

正在加载3D地球...

About Starlink 32462

Starlink 32462 (NORAD 62129) is a starlink constellation satellite (v2 mini) launched Nov 27, 2024 by SPXS of US. It operates in LEO, CIRCULAR orbit with a mass of 730.00 kg.

关于 Starlink 32462

正在加载描述...

即将过境

Passes for default location (London). Set your location on the main map for personalized predictions.

高度历史

Loading altitude history...

两行轨道根数

1 62129U 24222R 26171.32163652 .00025508 00000-0 93276-3 0 9997
2 62129 43.0002 273.2502 0002626 286.8770 73.1793 15.27595672 88483
Epoch: Jun 20, 2026 • Age: 12 hours

当前状态

高度 493.4 km
速度 7.62 km/s
星下点 -39.37°S, 54.33°W
发射日期 Nov 27, 2024
运行时间 1.5 years
类型 internet

技术详情

分类 Payload
质量 730.00 kg
干质量 700.00 kg
总质量 730.00 kg
长度 0.30 m
直径 4.10 m
跨度 29.00 m
形状 Box + pan
制造商 SPXS
平台类型 Starlink V2M
阶段状态 In Orbit
所有者/国家 SPXS/US

Most Searched